This demonstration page uses our WeatherBlox Daily Observations layout. Learn more.

Left ArrowRight Arrow

47.50024, -111.30081

Hourly Observations for May 27, 2022

Temp ( °F °C ) Dew Point ( °F °C ) Humidity (%) Winds ( mph kmh ) Pressure ( in mb ) Visibility ( mi km ) Precip ( " mm )
12:53 am 00:53 Clear 59 15 39 3.9 48 48 ESE 15 24 29.76 1008 10 16 0.00 0.00
1:53 am 01:53 Clear 60 15.6 38 3.3 44 44 ESE 10 17 29.73 1007 10 16 0.00 0.00
2:53 am 02:53 Mostly Cloudy 54 12.2 40 4.4 59 59 W 6 9 29.75 1007 10 16 0.00 0.00
3:53 am 03:53 Mostly Clear 52 11.1 38 3.3 59 59 S 9 15 29.72 1006 10 16 0.00 0.00
4:53 am 04:53 Partly Cloudy 50 10 42 5.6 74 74 WSW 8 13 29.71 1006 10 16 0.00 0.00
5:53 am 05:53 Mostly Cloudy 52 11.1 40 4.4 64 64 SW 12 19 29.70 1006 10 16 0.00 0.00
6:53 am 06:53 Sunny 53 11.7 39 3.9 59 59 SSW 6 9 29.69 1005 10 16 0.00 0.00
7:53 am 07:53 Mostly Cloudy 55 12.8 42 5.6 62 62 WSW 9 15 29.71 1006 10 16 0.00 0.00
8:53 am 08:53 Cloudy 61 16.1 42 5.6 50 50 SW 9 15 29.71 1006 10 16 0.00 0.00
9:53 am 09:53 Partly Cloudy 64 17.8 46 7.8 52 52 SW 18 30 29.71 1006 10 16 0.00 0.00
10:53 am 10:53 Mostly Cloudy 69 20.6 42 5.6 38 38 WSW 23 37 29.70 1006 10 16 0.00 0.00
11:53 am 11:53 Mostly Cloudy 70 21.1 42 5.6 37 37 W 21 33 29.71 1006 10 16 0.00 0.00
12:53 pm 12:53 Mostly Cloudy 72 22.2 39 3.9 30 30 W 29 46 29.70 1006 10 16 0.00 0.00
1:53 pm 13:53 Partly Cloudy 72 22.2 35 1.7 26 26 W 18 30 29.71 1006 10 16 0.00 0.00
2:53 pm 14:53 Mostly Cloudy 71 21.7 36 2.2 28 28 WSW 21 33 29.71 1006 10 16 0.00 0.00
3:53 pm 15:53 Mostly Sunny 73 22.8 35 1.7 25 25 WSW 26 43 29.70 1006 10 16 0.00 0.00
4:53 pm 16:53 Sunny 71 21.7 36 2.2 28 28 W 29 46 29.72 1006 10 16 0.00 0.00
5:53 pm 17:53 Sunny 70 21.1 37 2.8 30 30 W 23 37 29.70 1006 10 16 0.00 0.00
6:53 pm 18:53 Sunny 68 20 35 1.7 30 30 W 20 31 29.69 1006 10 16 0.00 0.00
7:53 pm 19:53 Sunny 67 19.4 34 1.1 30 30 W 16 26 29.68 1005 10 16 0.00 0.00
8:53 pm 20:53 Sunny 63 17.2 34 1.1 34 34 W 14 22 29.68 1005 10 16 0.00 0.00
9:53 pm 21:53 Clear 57 13.9 34 1.1 42 42 W 10 17 29.69 1005 10 16 0.00 0.00
10:53 pm 22:53 Mostly Cloudy 57 13.9 37 2.8 47 47 WNW 9 15 29.69 1005 10 16 0.00 0.00
11:53 pm 23:53 Clear 54 12.2 37 2.8 53 53 W 8 13 29.69 1006 10 16 0.00 0.00

Powered by AerisWeather